This is the latest recevied weather packets stored in our database for station/object K5GHS-1. If no packets are shown the sender has not sent any weather packets the latest 10 day(s).
| Time | Temp. | Humidity | Pressure | Rain* | Wind** | Luminosity | Snow |
|---|---|---|---|---|---|---|---|
| 1777815883 | 20.56° C | 55% | 1019 hPa | 0 mm | - | 176 W/m² | - |
| 1777815580 | 20° C | 58% | 1018.9 hPa | 0 mm | - | 155 W/m² | - |
| 1777815278 | 19.44° C | 58% | 1019.2 hPa | 0 mm | - | 149 W/m² | - |
| 1777814974 | 19.44° C | 59% | 1019.2 hPa | 0 mm | - | 135 W/m² | - |
| 1777814671 | 18.89° C | 60% | 1019.1 hPa | 0 mm | - | 125 W/m² | - |
| 1777814367 | 18.89° C | 61% | 1019 hPa | 0 mm | - | 116 W/m² | - |
| 1777814065 | 18.33° C | 62% | 1019 hPa | 0 mm | - | 116 W/m² | - |
| 1777813761 | 18.33° C | 64% | 1019.1 hPa | 0 mm | - | 105 W/m² | - |
| 1777813459 | 17.22° C | 65% | 1019 hPa | 0 mm | - | 89 W/m² | - |
| 1777813156 | 16.67° C | 66% | 1018.8 hPa | 0 mm | - | 76 W/m² | - |
| 1777812854 | 16.11° C | 68% | 1018.7 hPa | 0 mm | - | 56 W/m² | - |
| 1777812545 | 16.11° C | 69% | 1019.2 hPa | 0 mm | - | 29 W/m² | - |
| 1777812243 | 15.56° C | 70% | 1018.9 hPa | 0 mm | - | 27 W/m² | - |
| 1777811941 | 15.56° C | 71% | 1018.9 hPa | 0 mm | - | 23 W/m² | - |
| 1777811640 | 15° C | 71% | 1018.9 hPa | 0 mm | - | 22 W/m² | - |
| 1777811339 | 15° C | 73% | 1018.8 hPa | 0 mm | - | 20 W/m² | - |
| 1777811037 | 15° C | 72% | 1018.9 hPa | 0 mm | - | 17 W/m² | - |
| 1777810734 | 14.44° C | 73% | 1018.7 hPa | 0 mm | - | 16 W/m² | - |
| 1777810430 | 14.44° C | 74% | 1018.5 hPa | 0 mm | - | 13 W/m² | - |
| 1777810126 | 14.44° C | 74% | 1018.5 hPa | 0 mm | - | 11 W/m² | - |
| 1777809823 | 13.89° C | 74% | 1018.6 hPa | 0 mm | - | 10 W/m² | - |
| 1777809521 | 13.89° C | 74% | 1018.5 hPa | 0 mm | - | 8 W/m² | - |
| 1777809219 | 13.89° C | 74% | 1018.3 hPa | 0 mm | - | 5 W/m² | - |
| 1777808917 | 13.89° C | 74% | 1018.4 hPa | 0 mm | - | 3 W/m² | - |
| 1777808613 | 13.89° C | 73% | 1018.4 hPa | 0 mm | - | 3 W/m² | - |
* Rain latest hour (hover to see other rain measurements)
** Current wind speed in m/s (hover to see current wind gust speed)